Regional Weather Roundup
Issued by NWS

Home | Current Version | Previous Version | Graphics & Text | Print | Product List | Glossary On
Versions: 1 2 3 4 5 6 7 8 9 10 11 12 13 14 15 16 17 18 19 20 21 22 23 24 25 26 27 28 29 30 31 32 33 34 35 36 37 38 39 40 41 42 43 44 45 46 47 48 49 50
000
ASUS43 KMPX 302301
RWRMN
WEATHER ROUNDUP FOR MINNESOTA
NATIONAL WEATHER SERVICE TWIN CITIES/CHANHASSEN MN
600 PM CDT THU JUL 30 2015


NOTE: "FAIR" INDICATES FEW OR NO CLOUDS BELOW 12,000 FEET WITH NO
SIGNIFICANT WEATHER AND/OR OBSTRUCTIONS TO VISIBILITY. N/A MEANS
CURRENT SKY AND/OR WEATHER CONDITIONS ARE NOT AVAILABLE.

MNZ060>063-068>070-310000-
   Twin Cities Metro

CITY           SKY/WX    TMP DP  RH WIND       PRES   REMARKS
TWIN CITIES    MOSUNNY   84  54  35 W18G24    30.02S
ST PAUL        SUNNY     84  54  35 W16G24    30.01F
CRYSTAL        SUNNY     84  56  38 W10       30.01S
BLAINE         MOSUNNY   84  54  34 W15G25    30.01F
LAKEVILLE      SUNNY     81  59  47 W12       30.04F
EDEN PRAIRIE   SUNNY     84  57  39 W12G21    30.02F
SOUTH ST PAUL  SUNNY     84  51  32 W13G23    30.02S
LAKE ELMO      FAIR      81  57  44 W10G20    30.03S
$$
MNZ001>005-007-008-013>017-022>024-027-028-310000-
   Northwest Minnesota

CITY           SKY/WX    TMP DP  RH WIND       PRES   REMARKS
BEMIDJI        MOSUNNY   78  52  40 W18G26    29.98S
HALLOCK        SUNNY     81  48  32 W20       29.93S
ROSEAU         SUNNY     79  57  47 W15G22    29.92S
WARROAD        SUNNY     75  63  64 W9        29.91S
THIEF RVR FALL PTSUNNY   79  54  41 W17       29.97S
CROOKSTON      SUNNY     81  54  39 NW16      29.98S
FOSSTON        PTSUNNY   75  54  46 W14       30.00S
DETROIT LAKES  SUNNY     79  52  38 NW17G28   30.04S
MOORHEAD       SUNNY     79  57  47 NW13      30.02S
PARK RAPIDS    MOSUNNY   80  53  39 W21G28    30.01S
MAHNOMEN       FAIR      77  54  44 W14G24    30.00F
$$
MNZ006-009>011-018-025>026-310000-
   North Central Minnesota

CITY           SKY/WX    TMP DP  RH WIND       PRES   REMARKS
BAUDETTE       PTSUNNY   76  54  46 W17G25    29.90S
FLAG ISLAND    LGT RAIN  75  52  43 W25G35    29.87R
INTL FALLS     MOSUNNY   78  53  41 W12G28    29.88R
WASKISH        SUNNY     77  61  57 W15       29.93S
BIG FORK       SUNNY     79  54  41 W7        29.93F
LONGVILLE      MOSUNNY   81  55  41 W8G16     29.97F
GRAND RAPIDS   SUNNY     79  52  38 W15G22    29.95F
CRANE LAKE     MOSUNNY   77  52  41 W8G17     29.88S
ORR            MOSUNNY   77  50  38 W9G17     29.87S
COOK           PTSUNNY   75  55  50 W10G18    29.91R
WALKER         FAIR      78  53  42 W16G26    29.98S
$$
MNZ012-019>021-037-310000-
   Northeast Minnesota

CITY           SKY/WX    TMP DP  RH WIND       PRES   REMARKS
DULUTH         MOSUNNY   80  53  39 W16G28    29.93S
ELY            MOSUNNY   77  54  44 W12G22    29.88S
HIBBING        SUNNY     79  50  36 W15G28    29.92F
EVELETH        SUNNY     77  46  33 W16G26    29.93R
DULUTH HARBOR  SUNNY     82  59  44 W14G20    29.90F
TWO HARBORS    MOSUNNY   82  57  42 W12G20    29.88S
SILVER BAY     MOSUNNY   79  57  47 W5        29.87S
GRAND MARAIS     N/A     60  50  69 CALM      29.83F
G MARAIS ARPRT MOSUNNY   70  54  56 SW6       29.89F
$$
MNZ029>031-032-039>041-046>048-054>057-064-310000-
   West Central Minnesota

CITY           SKY/WX    TMP DP  RH WIND       PRES   REMARKS
FERGUS FALLS   SUNNY     81  57  44 W14       30.02F
WHEATON        SUNNY     81  61  50 NW9       30.05F
MORRIS         SUNNY     82  63  51 NW10      30.04F
ALEXANDRIA     SUNNY     80  57  45 W18       30.06F
ELBOW LAKE     FAIR      80  60  51 NW13      30.04S
WADENA         MOSUNNY   79  55  44 W12G18    30.02S
GLENWOOD       SUNNY     81  57  44 W15G21    30.06F
APPLETON       SUNNY     84  57  39 W8        30.04F
BENSON         SUNNY     84  55  37 N7        30.04F
ORTONVILLE     SUNNY     84  55  37 W10       30.04F
MADISON        SUNNY     84  52  32 NW10      30.05F
WILLMAR        FAIR      84  61  45 W8        30.06F
$$
MNZ033>034-036-042>043-049>051-058-059-310000-
   Central Minnesota

CITY           SKY/WX    TMP DP  RH WIND       PRES   REMARKS
ST CLOUD       MOSUNNY   81  56  42 W16G22    30.02F
SAUK CENTRE    FAIR      79  59  49 W16G23    30.05S
PAYNESVILLE    SUNNY     80  55  41 SW12G21   30.06S
AITKIN         SUNNY     81  55  41 W7        29.97S
PINE RIVER     SUNNY     79  55  44 W14G21    30.02S
BRAINERD       MOSUNNY   81  54  39 W21G29    30.00S
STAPLES        MOSUNNY   77  54  44 W15G21    30.01F
LONG PRAIRIE   FAIR      79  55  44 W15G23    30.05S
LITTLE FALLS   MOSUNNY   81  52  36 W12G22    30.02S
LITCHFIELD     SUNNY     82  61  47 W8        30.04F
BUFFALO        SUNNY     82  55  40 W12       30.04S
MAPLE LAKE     SUNNY     82  59  44 W10G18    30.05S
$$
MNZ037-044-045-052-053-310000-
   East Central Minnesota

CITY           SKY/WX    TMP DP  RH WIND       PRES   REMARKS
PRINCETON      MOSUNNY   82  57  42 W10G22    30.02S
MORA           SUNNY     77  52  41 W10       30.01S
CAMBRIDGE      MOSUNNY   82  61  47 W9        29.99S
RUSH CITY      SUNNY     80  57  45 W8G17     30.00S
MOOSE LAKE     SUNNY     79  54  41 W12G17    29.94F
HINCKLEY       FAIR      81  55  41 W12G22    29.98S
CLOQUET        MOSUNNY   81  46  30 W15G22    29.94F
MCGREGOR       MOSUNNY   81  54  39 W10G20    29.97S
$$
MNZ071>073-080-081-089-090-097-098-310000-
   Southwest Minnesota

CITY           SKY/WX    TMP DP  RH WIND       PRES   REMARKS
MONTEVIDEO     SUNNY     88  59  37 NW9       30.07F
GRANITE FALLS  SUNNY     83  62  48 W7        30.07F
CANBY          SUNNY     85  51  31 W12       30.08F
MARSHALL       SUNNY     84  54  34 W14G20    30.09F
REDWOOD FALLS  SUNNY     85  56  37 W10       30.06F
OLIVIA         SUNNY     81  55  41 W9        30.05F
PIPESTONE      SUNNY     82  57  42 W7        30.13S
WINDOM         SUNNY     84  57  39 W7        30.10F
WORTHINGTON    SUNNY     82  63  51 W9        30.12S
JACKSON        SUNNY     84  59  42 W10       30.12S
TRACY          SUNNY     84  59  42 NW5       30.10S
SLAYTON        SUNNY     83  58  43 CALM      30.12F
$$
MNZ065>067-074>077-082>085-091>093-310000-
   South Central Minnesota

CITY           SKY/WX    TMP DP  RH WIND       PRES   REMARKS
MANKATO        SUNNY     82  55  39 W8        30.06F
NEW ULM        SUNNY     82  55  39 W10       30.06F
ST JAMES       SUNNY     84  59  42 W6        30.09S
FAIRMONT       SUNNY     84  57  39 W8        30.09F
GLENCOE        SUNNY     83  61  48 W7        30.05S
FARIBAULT      SUNNY     81  61  50 W10       30.06F
OWATONNA       SUNNY     81  59  47 W8        30.07F
WASECA         SUNNY     79  61  53 W7        30.08F
ALBERT LEA     SUNNY     82  55  39 W7        30.09S
$$
MNZ078>079-086>088-094>096-310000-
   Southeast Minnesota

CITY           SKY/WX    TMP DP  RH WIND       PRES   REMARKS
ROCHESTER      SUNNY     80  61  52 W10       30.08S
RED WING       SUNNY     84  55  37 W14G23    30.01S
STANTON        SUNNY     82  57  41 W10G17    30.03F
DODGE CENTER   SUNNY     81  57  44 W10       30.08S
WINONA         SUNNY     82  55  39 W10       30.02S
AUSTIN         SUNNY     82  55  39 W9        30.08S
PRESTON        SUNNY     79  57  46 NW8G16    30.08S
$$
ABBREVIATIONS USED IN REMARKS
   TC - TEMPERATURES IN CELSIUS
  WCI - WIND CHILL INDEX
   HX - HEAT INDEX
  VSB - VISIBILITY
$$


USA.gov is the U.S. government's official web portal to all federal, state and local government web resources and services.